This is the latest recevied weather packets stored in our database for station/object DL9GJ-6. If no packets are shown the sender has not sent any weather packets the latest 10 day(s).
| Time | Temp. | Humidity | Pressure | Rain* | Wind** | Luminosity | Snow |
|---|---|---|---|---|---|---|---|
| 1778176569 | 12.22° C | 78% | 1014.7 hPa | 0 mm | - | 36 W/m² | - |
| 1778176219 | 12.78° C | 77% | 1014.7 hPa | 0 mm | - | 35 W/m² | - |
| 1778175858 | 12.78° C | 76% | 1014.7 hPa | 0 mm | - | 33 W/m² | - |
| 1778175498 | 12.78° C | 77% | 1014.7 hPa | 0 mm | - | 33 W/m² | - |
| 1778175138 | 12.78° C | 77% | 1014.5 hPa | 0 mm | - | 39 W/m² | - |
| 1778174779 | 12.78° C | 77% | 1014.5 hPa | 0 mm | - | 44 W/m² | - |
| 1778174769 | 12.78° C | 77% | 1014.5 hPa | 0 mm | - | 44 W/m² | - |
| 1778174419 | 13.33° C | 77% | 1014.5 hPa | 0 mm | - | 68 W/m² | - |
| 1778174409 | 13.33° C | 77% | 1014.5 hPa | 0 mm | - | 68 W/m² | - |
| 1778174060 | 12.78° C | 77% | 1014.3 hPa | 0 mm | - | 102 W/m² | - |
| 1778173699 | 12.78° C | 77% | 1014.3 hPa | 0 mm | - | 77 W/m² | - |
| 1778173339 | 12.78° C | 77% | 1014.3 hPa | 0 mm | - | 59 W/m² | - |
| 1778172980 | 12.78° C | 77% | 1014.4 hPa | 0 mm | - | 76 W/m² | - |
| 1778172965 | 12.78° C | 77% | 1014.4 hPa | 0 mm | - | 76 W/m² | - |
| 1778172619 | 12.78° C | 76% | 1014.4 hPa | 0 mm | - | 73 W/m² | - |
| 1778172260 | 13.33° C | 75% | 1014.2 hPa | 0 mm | - | 86 W/m² | - |
| 1778172250 | 13.33° C | 75% | 1014.2 hPa | 0 mm | - | 86 W/m² | - |
| 1778171900 | 13.33° C | 75% | 1014.2 hPa | 0 mm | - | 91 W/m² | - |
| 1778171539 | 13.33° C | 75% | 1014.2 hPa | 0 mm | - | 87 W/m² | - |
| 1778171179 | 13.33° C | 76% | 1014.3 hPa | 0 mm | - | 89 W/m² | - |
| 1778170818 | 13.33° C | 76% | 1014.2 hPa | 0 mm | - | 113 W/m² | - |
| 1778170808 | 13.33° C | 76% | 1014.2 hPa | 0 mm | - | 113 W/m² | - |
| 1778170459 | 13.33° C | 76% | 1014.2 hPa | 0 mm | - | 95 W/m² | - |
| 1778170446 | 13.33° C | 76% | 1014.2 hPa | 0 mm | - | 95 W/m² | - |
| 1778170099 | 13.33° C | 75% | 1014.3 hPa | 0 mm | - | 87 W/m² | - |
* Rain latest hour (hover to see other rain measurements)
** Current wind speed in m/s (hover to see current wind gust speed)